Time,TemperatureF,DewpointF,PressureIn,WindDirection,WindDirectionDegrees,WindSpeedMPH,WindSpeedGustMPH,Humidity,HourlyPrecipIn,Conditions,Clouds,dailyrainin,SoftwareType,DateUTC
2013-10-13 00:02:00,-999.0,-99.9,30.19,WSW,237,0.0,0.0,-999,-99.99,,,-99.99,,2013-10-13 04:02:00,
2013-10-13 00:23:00,66.0,63.0,30.20,WSW,247,0.0,2.0,89,0.00,,,0.00,,2013-10-13 04:23:00,
2013-10-13 00:54:00,65.0,62.0,30.20,WSW,246,0.0,1.0,89,0.00,,,0.00,,2013-10-13 04:54:00,
2013-10-13 01:23:00,65.0,62.0,30.21,West,269,0.0,1.0,89,0.00,,,0.00,,2013-10-13 05:23:00,
2013-10-13 01:43:00,65.0,62.0,30.21,West,270,0.0,0.0,89,0.00,,,0.00,,2013-10-13 05:43:00,
2013-10-13 01:52:00,65.0,62.0,30.21,West,270,0.0,1.0,90,0.00,,,0.00,,2013-10-13 05:52:00,
2013-10-13 02:12:00,65.0,62.0,30.22,West,270,0.0,0.0,90,0.00,,,0.00,,2013-10-13 06:12:00,
2013-10-13 02:22:00,65.0,62.0,30.22,West,270,0.0,0.0,90,0.00,,,0.00,,2013-10-13 06:22:00,
2013-10-13 02:42:00,65.0,62.0,30.22,West,269,0.0,1.0,90,0.00,,,0.00,,2013-10-13 06:42:00,
2013-10-13 02:52:00,65.0,62.0,30.22,West,270,0.0,1.0,90,0.00,,,0.00,,2013-10-13 06:52:00,
2013-10-13 03:22:00,65.0,62.0,30.22,West,270,0.0,0.0,91,0.00,,,0.00,,2013-10-13 07:22:00,
2013-10-13 03:52:00,64.0,62.0,30.22,West,270,0.0,0.0,92,0.00,,,0.00,,2013-10-13 07:52:00,
2013-10-13 04:22:00,64.0,61.0,30.22,West,274,0.0,0.0,91,0.00,,,0.00,,2013-10-13 08:22:00,
2013-10-13 04:42:00,64.0,61.0,30.21,West,274,0.0,2.0,91,0.00,,,0.00,,2013-10-13 08:42:00,
2013-10-13 04:52:00,64.0,61.0,30.21,North,355,0.0,2.0,91,0.00,,,0.00,,2013-10-13 08:52:00,
2013-10-13 05:11:00,64.0,61.0,30.22,WSW,252,0.0,2.0,91,0.00,,,0.00,,2013-10-13 09:11:00,
2013-10-13 05:22:00,63.0,60.0,30.22,SW,225,0.0,4.0,90,0.00,,,0.00,,2013-10-13 09:22:00,
2013-10-13 05:43:00,63.0,60.0,30.22,SW,225,0.0,0.0,90,0.00,,,0.00,,2013-10-13 09:43:00,
2013-10-13 05:53:00,63.0,60.0,30.23,SW,225,0.0,0.0,91,0.00,,,0.00,,2013-10-13 09:53:00,
2013-10-13 06:13:00,63.0,60.0,30.23,SW,225,0.0,0.0,90,0.00,,,0.00,,2013-10-13 10:13:00,
2013-10-13 06:23:00,63.0,60.0,30.24,WSW,240,0.0,0.0,90,0.00,,,0.00,,2013-10-13 10:23:00,
2013-10-13 06:53:00,63.0,60.0,30.24,WSW,240,0.0,1.0,90,0.00,,,0.00,,2013-10-13 10:53:00,
2013-10-13 07:12:00,63.0,60.0,30.24,WSW,240,0.0,0.0,90,0.00,,,0.00,,2013-10-13 11:12:00,
2013-10-13 10:11:00,63.0,60.0,30.29,West,275,0.0,2.0,91,0.00,,,0.00,,2013-10-13 14:11:00,
2013-10-13 10:22:00,64.0,61.0,30.30,SW,215,0.0,2.0,91,0.00,,,0.00,,2013-10-13 14:22:00,
2013-10-13 10:42:00,64.0,61.0,30.30,SSW,200,0.0,5.0,90,0.00,,,0.00,,2013-10-13 14:42:00,
2013-10-13 10:52:00,64.0,61.0,30.30,SW,217,1.0,4.0,89,0.00,,,0.00,,2013-10-13 14:52:00,
2013-10-13 11:12:00,65.0,61.0,30.30,SW,227,0.0,4.0,88,0.00,,,0.00,,2013-10-13 15:12:00,
2013-10-13 11:22:00,65.0,61.0,30.31,SW,221,1.0,5.0,87,0.00,,,0.00,,2013-10-13 15:22:00,
2013-10-13 11:43:00,66.0,62.0,30.30,West,268,0.0,3.0,87,0.00,,,0.00,,2013-10-13 15:43:00,
2013-10-13 11:54:00,66.0,61.0,30.30,WSW,250,1.0,5.0,85,0.00,,,0.00,,2013-10-13 15:54:00,
2013-10-13 12:13:00,68.0,63.0,30.30,SW,217,1.0,6.0,83,0.00,,,0.00,,2013-10-13 16:13:00,
2013-10-13 12:24:00,68.0,62.0,30.30,SW,233,3.0,6.0,81,0.00,,,0.00,,2013-10-13 16:24:00,
2013-10-13 12:43:00,69.0,63.0,30.30,WSW,245,1.0,5.0,80,0.00,,,0.00,,2013-10-13 16:43:00,
2013-10-13 12:54:00,69.0,62.0,30.30,SW,221,0.0,7.0,79,0.00,,,0.00,,2013-10-13 16:54:00,
2013-10-13 13:22:00,69.0,62.0,30.29,SW,232,2.0,4.0,79,0.00,,,0.00,,2013-10-13 17:22:00,
2013-10-13 13:53:00,70.0,63.0,30.28,SW,216,1.0,7.0,78,0.00,,,0.00,,2013-10-13 17:53:00,
2013-10-13 14:22:00,70.0,62.0,30.28,SW,220,1.0,5.0,77,0.00,,,0.00,,2013-10-13 18:22:00,
2013-10-13 14:42:00,69.0,62.0,30.27,WSW,249,0.0,3.0,78,0.00,,,0.00,,2013-10-13 18:42:00,
2013-10-13 14:52:00,69.0,62.0,30.27,NE,53,2.0,5.0,78,0.00,,,0.00,,2013-10-13 18:52:00,
2013-10-13 15:11:00,70.0,63.0,30.27,NW,311,0.0,7.0,78,0.00,,,0.00,,2013-10-13 19:11:00,
2013-10-13 15:22:00,70.0,63.0,30.27,WSW,237,0.0,4.0,78,0.00,,,0.00,,2013-10-13 19:22:00,
2013-10-13 15:42:00,70.0,63.0,30.27,WSW,246,0.0,4.0,78,0.00,,,0.00,,2013-10-13 19:42:00,
2013-10-13 15:53:00,71.0,63.0,30.26,ENE,66,1.0,3.0,76,0.00,,,0.00,,2013-10-13 19:53:00,
2013-10-13 16:22:00,71.0,63.0,30.26,WSW,237,0.0,4.0,76,0.00,,,0.00,,2013-10-13 20:22:00,
2013-10-13 16:43:00,70.0,62.0,30.27,SW,229,0.0,3.0,77,0.00,,,0.00,,2013-10-13 20:43:00,
2013-10-13 16:52:00,70.0,62.0,30.26,WSW,253,1.0,4.0,77,0.00,,,0.00,,2013-10-13 20:52:00,
2013-10-13 17:11:00,70.0,62.0,30.26,SW,236,0.0,5.0,77,0.00,,,0.00,,2013-10-13 21:11:00,
2013-10-13 17:22:00,70.0,62.0,30.26,West,279,0.0,2.0,77,0.00,,,0.00,,2013-10-13 21:22:00,
2013-10-13 17:44:00,70.0,62.0,30.26,SW,214,0.0,4.0,76,0.00,,,0.00,,2013-10-13 21:44:00,
2013-10-13 17:55:00,70.0,62.0,30.26,WSW,237,1.0,5.0,77,0.00,,,0.00,,2013-10-13 21:55:00,
2013-10-13 18:24:00,69.0,62.0,30.27,SW,232,0.0,2.0,78,0.00,,,0.00,,2013-10-13 22:24:00,
2013-10-13 18:43:00,69.0,62.0,30.27,SW,227,0.0,2.0,78,0.00,,,0.00,,2013-10-13 22:43:00,
2013-10-13 18:53:00,69.0,63.0,30.28,SW,224,1.0,2.0,80,0.00,,,0.00,,2013-10-13 22:53:00,
2013-10-13 19:12:00,68.0,62.0,30.28,SW,226,0.0,4.0,80,0.00,,,0.00,,2013-10-13 23:12:00,
2013-10-13 19:22:00,68.0,62.0,30.29,WSW,246,0.0,3.0,82,0.00,,,0.00,,2013-10-13 23:22:00,
2013-10-13 19:42:00,67.0,62.0,30.29,WSW,239,0.0,4.0,83,0.00,,,0.00,,2013-10-13 23:42:00,
2013-10-13 19:52:00,67.0,62.0,30.29,SW,234,0.0,4.0,84,0.00,,,0.00,,2013-10-13 23:52:00,
2013-10-13 20:12:00,67.0,62.0,30.29,WSW,237,0.0,2.0,85,0.00,,,0.00,,2013-10-14 00:12:00,
2013-10-13 20:22:00,66.0,62.0,30.30,WSW,237,0.0,3.0,86,0.00,,,0.00,,2013-10-14 00:22:00,
2013-10-13 20:42:00,66.0,62.0,30.30,WSW,244,0.0,3.0,86,0.00,,,0.00,,2013-10-14 00:42:00,
2013-10-13 20:52:00,66.0,62.0,30.30,WSW,242,0.0,1.0,87,0.00,,,0.00,,2013-10-14 00:52:00,
2013-10-13 21:11:00,66.0,62.0,30.30,SW,223,0.0,3.0,87,0.00,,,0.00,,2013-10-14 01:11:00,
2013-10-13 21:22:00,66.0,62.0,30.30,West,272,1.0,3.0,87,0.00,,,0.00,,2013-10-14 01:22:00,
2013-10-13 21:42:00,66.0,62.0,30.30,SW,226,0.0,4.0,87,0.00,,,0.00,,2013-10-14 01:42:00,
2013-10-13 21:52:00,65.0,61.0,30.30,WSW,240,0.0,4.0,87,0.00,,,0.00,,2013-10-14 01:52:00,
2013-10-13 22:11:00,65.0,61.0,30.31,SW,227,0.0,4.0,88,0.00,,,0.00,,2013-10-14 02:11:00,
2013-10-13 22:22:00,65.0,61.0,30.32,WSW,238,0.0,1.0,88,0.00,,,0.00,,2013-10-14 02:22:00,
2013-10-13 22:52:00,65.0,61.0,30.32,WSW,241,0.0,4.0,87,0.00,,,0.00,,2013-10-14 02:52:00,
2013-10-13 23:12:00,65.0,61.0,30.32,WNW,302,1.0,3.0,87,0.00,,,0.00,,2013-10-14 03:12:00,
2013-10-13 23:22:00,65.0,61.0,30.32,WSW,253,0.0,7.0,87,0.00,,,0.00,,2013-10-14 03:22:00,
2013-10-13 23:33:00,65.0,61.0,30.32,WSW,253,0.0,7.0,87,0.00,,,0.00,,2013-10-14 03:33:00,
2013-10-13 23:44:00,65.0,61.0,30.32,WSW,253,0.0,7.0,87,0.00,,,0.00,,2013-10-14 03:44:00,
2013-10-13 23:55:00,65.0,61.0,30.32,SW,234,0.0,7.0,87,0.00,,,0.00,,2013-10-14 03:55:00,